Temperature
25 27 27 27 27 28 27 27 27 26 26 26 25 25 23 22 21 21 20 19 18 18 17 16 15 15 15 15 15 15 15 15 15 15 14 14 14 13 13 13 13 13 13 13
26 26 27 27 27 27 27 27 26 26 25 25 25 25 24 23 22 21 21 20 19 18 17 15 15 15 15 15 15 15 15 14 14 14 14 14 13 13 13 13 13 13 13 13
27 27 26 26 26 26 27 27 27 26 25 25 25 24 24 23 22 21 20 19 19 18 17 16 15 15 15 14 14 14 14 14 14 14 13 13 13 13 13 12 12 12 12 12
27 27 26 26 26 27 26 27 26 26 26 26 25 25 25 24 23 22 20 19 18 17 16 16 15 15 14 14 14 14 14 14 14 14 13 13 12 12 12 12 12 12 12 12
26 26 26 26 27 26 27 26 26 26 26 26 25 25 26 24 23 22 21 19 18 17 16 16 15 15 14 14 14 13 14 14 13 13 13 12 12 12 12 12 11 11 11 11
27 27 27 27 27 26 26 26 26 26 26 25 26 25 26 25 24 23 22 20 18 17 16 15 15 14 14 14 13 13 13 13 13 13 12 12 12 12 11 11 11 11 11 11
26 27 26 26 26 26 26 26 25 25 25 26 26 25 25 24 23 23 21 20 18 17 16 15 14 14 14 13 13 13 13 13 12 12 12 12 12 11 11 11 11 11 11 11
26 26 26 26 26 26 26 26 25 24 25 26 25 25 25 23 22 20 20 19 17 16 15 14 14 14 13 13 12 12 12 12 12 12 12 11 11 11 11 10 11 10 10 10
26 26 26 26 26 27 26 26 27 26 26 25 26 25 24 22 21 20 19 18 17 16 15 14 13 13 13 12 12 12 12 12 12 11 11 11 11 10 10 10 10 10 10 10
26 25 26 26 26 26 26 27 26 25 24 24 25 25 25 23 21 20 19 17 17 15 14 13 13 13 12 12 12 12 12 11 11 11 11 11 10 10 10 10 10 10 10 10
26 25 25 26 26 26 25 25 25 26 25 24 24 24 24 23 22 20 19 17 16 15 14 13 13 12 12 12 12 11 11 11 11 11 11 10 10 10 10 10 9 9 9 9
25 25 25 25 26 25 25 26 25 24 24 24 24 23 22 22 21 20 18 17 15 14 14 13 12 12 12 11 11 11 11 11 10 10 10 10 10 10 9 9 9 9 9 9
24 24 23 24 24 24 25 25 25 25 24 24 24 23 21 21 20 18 17 16 15 14 13 13 12 12 11 11 11 11 11 10 10 10 10 10 9 9 9 9 9 9 9 9
23 24 24 24 24 25 24 24 24 24 24 24 24 23 22 21 20 18 17 15 14 13 13 12 12 11 11 11 11 10 10 10 10 10 10 9 9 9 9 9 9 9 9 8
23 23 24 24 24 24 24 24 24 24 24 23 23 23 22 21 20 18 16 15 14 13 12 12 11 11 11 10 10 10 10 10 10 10 10 9 9 9 9 9 8 8 8 8
22 22 23 23 24 24 23 23 23 23 23 23 23 22 22 20 18 17 15 15 14 13 12 11 11 11 10 10 10 10 10 10 10 9 9 9 9 9 9 9 8 8 8 8
22 22 22 23 23 23 22 23 23 23 23 23 23 22 21 19 18 17 15 14 14 13 12 11 11 11 11 10 10 10 10 10 9 9 9 9 9 9 9 8 8 8 8 8
21 21 22 23 22 21 23 23 23 23 23 23 22 21 20 19 17 16 15 14 13 13 12 11 11 11 11 10 10 10 10 10 9 9 9 9 9 9 9 8 8 8 8 8
21 21 22 22 22 22 22 23 23 22 22 22 22 21 19 18 17 16 14 14 13 13 12 11 11 11 10 10 10 10 10 9 9 9 9 9 9 9 9 8 8 8 8 8
21 21 22 22 21 21 22 23 22 22 21 22 21 20 19 18 20 18 14 13 13 12 12 11 11 11 10 10 10 10 10 9 9 9 9 9 9 9 9 8 8 8 8 8
21 21 21 21 21 22 23 22 21 21 21 21 20 19 18 19 19 16 14 13 12 12 11 11 11 11 10 10 10 10 9 9 9 9 9 9 9 8 8 8 8 8 8 8
22 22 21 22 21 21 22 21 21 21 20 19 19 18 17 17 15 14 13 13 12 11 11 11 11 11 10 10 10 10 9 9 9 9 9 9 9 9 9 8 8 8 8 9
22 22 22 22 22 21 20 20 19 19 19 18 18 17 16 16 15 14 13 12 12 11 11 11 11 10 10 10 10 10 9 9 9 9 9 9 9 8 9 9 9 9 9 9
21 21 21 21 21 20 19 19 18 18 18 17 17 16 16 15 14 14 13 12 12 11 11 11 11 10 10 10 10 9 9 9 9 9 9 9 9 9 9 9 9 9 9 10
20 20 21 20 21 20 19 19 18 17 17 16 16 16 15 15 14 13 13 12 12 11 11 11 11 10 10 10 10 10 9 9 9 9 9 9 9 9 9 9 9 9 9 9
20 20 20 21 20 20 19 18 17 17 16 16 15 15 15 14 14 13 13 12 12 11 11 11 11 10 10 10 10 10 9 9 9 9 9 9 9 9 9 10 9 9 9 9
Wind_Speed
5 7 7 6 4 1 4 5 6 5 5 7 8 7 9 11 11 11 11 10 10 9 8 7 7 6 6 5 5 5 4 4 3 3 2 2 2 2 1 2 2 2 2 2
7 6 3 3 4 5 6 6 6 5 5 5 6 7 8 10 12 11 11 10 10 10 9 8 8 7 6 5 5 4 4 4 3 2 2 1 1 1 1 2 2 2 3 3
4 4 4 6 7 7 6 6 5 5 6 6 6 8 10 10 11 11 10 10 10 10 10 10 9 8 7 6 5 5 4 4 3 3 3 3 2 2 1 1 1 2 3 3
2 3 5 6 6 7 5 3 4 6 8 6 7 8 8 10 11 12 12 11 11 10 10 9 9 8 7 6 5 5 5 4 3 3 3 2 1 1 1 1 2 2 3 2
3 4 6 6 5 6 2 3 5 6 8 7 8 9 5 8 10 11 12 12 12 11 11 11 9 8 7 6 5 5 4 4 3 3 3 2 2 1 1 2 2 1 2 2
2 3 3 2 2 4 5 5 5 7 9 10 8 9 7 4 6 7 8 11 11 11 11 10 9 8 7 6 5 5 5 4 4 3 3 3 2 1 1 1 0 0 1 2
5 6 4 4 5 7 7 7 6 7 8 7 3 7 5 1 1 3 5 8 10 10 10 10 10 9 8 7 6 6 5 5 4 4 3 2 2 3 2 1 1 1 1 2
5 5 5 5 6 5 8 9 8 8 8 6 4 6 1 3 1 1 3 5 8 10 9 9 9 9 8 7 6 6 5 4 4 4 3 2 2 1 0 0 1 1 2 2
4 2 4 3 4 6 7 9 8 10 11 10 6 3 2 3 2 3 4 6 8 9 9 8 8 7 7 7 6 5 5 4 4 4 3 3 2 1 0 0 1 1 2 2
4 5 3 3 5 4 6 5 6 9 9 10 8 7 3 2 2 3 5 6 7 9 9 8 8 7 7 6 5 5 5 4 4 4 3 2 2 1 1 1 2 2 2 3
5 6 5 5 6 7 6 6 8 9 9 11 11 5 4 1 2 4 5 6 7 9 9 8 7 7 7 6 5 5 5 5 4 3 2 2 2 2 2 2 1 2 2 2
4 5 7 6 2 4 7 8 8 9 10 10 11 5 5 2 2 4 6 7 8 9 8 8 8 7 6 5 5 4 4 4 3 2 2 3 3 3 2 2 2 2 2 2
3 4 7 6 6 5 6 7 8 9 10 10 12 4 5 3 3 4 6 7 8 9 8 8 8 7 6 5 5 4 3 3 3 3 3 4 3 3 2 2 1 2 2 2
3 6 9 10 7 5 6 7 8 10 11 11 11 8 3 3 4 5 6 7 8 8 8 8 8 7 6 6 5 4 4 3 3 3 3 4 3 2 2 2 2 2 2 2
4 8 9 9 8 8 9 9 9 10 11 12 10 8 5 3 4 6 7 8 9 9 8 9 8 7 7 6 5 5 4 4 3 3 3 3 3 3 2 2 2 2 2 2
3 6 8 9 8 9 10 10 10 10 10 10 10 8 2 2 4 6 7 9 9 9 9 9 8 8 8 7 6 5 4 4 3 3 3 3 3 2 2 2 1 2 2 2
5 6 8 10 8 9 10 8 8 8 8 9 9 5 4 5 6 7 8 9 9 9 9 9 9 8 7 7 6 6 5 4 4 3 3 4 3 3 2 1 1 1 1 2
8 8 8 9 8 10 4 3 6 7 7 6 4 2 3 4 5 5 7 8 9 9 9 9 8 8 7 7 6 6 5 4 4 3 3 3 3 2 2 1 1 1 1 2
9 9 7 8 10 8 5 4 5 6 7 4 4 3 4 5 5 6 7 8 8 9 9 9 8 8 7 7 7 6 5 5 4 4 3 3 3 2 1 1 1 1 1 2
8 9 9 9 10 8 4 1 3 6 6 3 4 6 7 7 5 4 9 8 8 9 8 8 8 8 8 7 7 6 5 5 4 4 3 2 2 2 1 1 1 1 2 2
8 8 10 11 10 6 2 2 4 5 1 3 4 6 7 5 0 6 10 9 9 9 9 9 9 8 7 8 7 6 5 4 4 4 3 2 2 2 1 1 1 1 1 2
9 8 9 9 9 6 3 5 4 2 2 3 4 6 6 5 6 9 10 10 10 10 10 9 8 8 7 8 7 6 5 4 4 4 4 3 2 2 1 1 1 1 1 2
8 7 6 5 4 0 3 3 1 1 2 2 3 5 7 8 8 9 10 10 10 10 10 9 9 9 8 7 7 6 5 5 5 5 4 3 2 2 2 2 2 2 2 2
7 5 6 6 5 4 4 4 3 2 2 3 4 6 8 8 9 10 10 10 10 10 10 9 9 9 8 7 6 5 5 5 5 5 4 3 3 3 2 3 3 2 2 3
6 5 6 7 6 5 5 5 4 3 4 5 5 6 7 9 10 10 10 10 10 9 9 9 9 9 8 8 7 6 5 5 5 4 4 3 3 2 2 2 2 3 3 3
9 9 9 7 6 6 6 5 5 6 6 6 6 6 7 8 9 10 10 9 10 10 9 9 9 9 9 8 7 7 6 6 5 4 4 3 3 3 3 3 3 4 5 3
Wind_Direction
190 203 189 180 209 167 172 178 172 152 160 197 200 191 184 188 198 200 198 193 188 185 169 159 154 151 149 146 148 150 148 152 165 157 157 155 152 142 115 85 66 46 23 16
191 191 171 174 188 194 192 189 173 155 162 207 199 206 198 198 206 209 204 197 192 184 173 167 164 159 155 151 150 150 154 159 172 159 166 164 153 144 104 76 71 48 36 13
202 112 147 183 187 200 204 213 194 175 168 198 211 217 209 207 211 212 212 204 197 191 183 178 175 170 163 160 159 157 156 157 162 163 163 157 157 170 164 129 77 48 38 27
196 157 186 200 197 215 208 209 214 200 213 217 218 256 212 203 207 211 213 212 206 196 190 186 180 173 166 162 158 154 149 147 146 163 167 172 187 181 106 37 53 46 42 23
174 183 205 212 205 222 219 183 214 223 242 254 228 259 242 190 219 219 214 212 209 198 191 189 182 173 165 160 158 151 145 143 146 151 161 180 178 153 120 95 84 33 53 26
221 203 238 233 192 196 165 183 202 225 240 248 237 253 262 214 236 228 209 207 204 196 190 184 172 163 162 163 161 155 152 145 152 163 167 168 158 161 151 135 123 292 41 35
201 194 187 194 188 180 209 228 238 236 237 255 190 249 277 87 237 235 211 200 192 184 180 177 172 170 167 167 165 165 161 157 157 160 169 173 171 182 188 211 186 306 359 20
234 203 185 204 231 228 221 243 265 278 281 286 210 253 340 89 97 195 183 172 167 168 171 174 175 174 170 169 168 170 170 166 159 153 155 157 172 204 145 305 306 340 353 8
258 240 151 200 238 252 234 244 281 281 278 277 268 256 201 160 166 155 147 152 160 162 161 163 164 165 166 168 167 168 165 156 155 151 156 158 163 169 72 234 278 21 18 8
267 267 219 191 207 217 272 271 257 265 276 279 276 268 278 175 183 166 161 162 159 155 152 151 152 154 155 157 156 157 155 145 150 160 171 157 150 139 112 53 45 35 22 15
256 259 240 222 240 250 225 236 256 270 280 284 288 301 38 65 166 177 168 162 160 153 149 148 150 149 146 144 146 151 154 154 155 161 157 145 137 120 105 89 65 53 34 18
242 265 269 256 245 280 261 260 255 264 269 269 284 301 82 88 136 162 159 155 153 150 149 148 147 143 143 145 146 147 152 154 151 140 135 131 123 116 113 93 66 52 35 17
211 245 262 241 209 207 239 248 257 264 272 272 278 283 110 120 137 150 154 154 153 151 151 150 148 146 149 150 148 145 151 151 144 134 146 138 129 120 108 91 59 43 36 21
253 254 265 277 292 284 258 257 255 258 266 273 276 284 249 200 174 159 154 158 156 155 156 157 155 154 154 154 153 153 152 149 149 147 144 135 127 117 110 95 65 42 34 22
250 257 260 270 277 274 270 269 262 260 274 281 289 292 286 244 186 164 162 162 161 163 163 164 161 158 155 155 156 160 154 146 148 147 134 128 124 118 111 90 72 57 40 26
246 261 261 261 258 258 262 266 265 265 271 273 275 277 294 141 154 159 163 168 171 171 170 167 164 160 162 163 164 163 163 158 156 153 141 125 119 117 110 99 75 55 37 21
235 245 258 262 261 261 255 260 266 266 270 274 276 274 176 170 174 173 172 174 174 173 171 171 169 168 168 169 169 167 166 161 158 156 149 140 133 122 105 94 64 40 30 14
237 246 255 263 260 258 271 281 267 264 269 272 268 237 189 177 165 168 172 174 172 173 173 172 172 170 171 171 168 166 161 161 163 157 153 151 150 140 124 91 51 17 359 350
224 234 249 255 257 263 256 246 245 260 265 258 237 190 161 144 158 171 170 175 174 173 171 171 170 168 168 169 168 166 165 167 166 161 159 162 161 151 149 128 43 346 328 319
207 225 241 250 261 267 271 221 227 256 254 203 195 182 171 177 211 164 158 166 165 164 164 165 165 165 163 166 167 167 169 171 172 167 171 171 168 167 166 155 311 313 312 310
205 216 234 248 255 258 272 162 201 247 309 144 181 181 182 196 9 122 149 157 158 159 160 163 164 162 161 163 166 169 171 173 169 164 164 157 162 174 179 187 236 280 298 328
236 232 232 242 249 247 163 184 226 339 75 149 177 181 176 151 129 140 150 153 156 157 158 161 161 157 158 163 167 170 172 171 167 167 169 166 173 197 171 186 220 254 276 277
245 253 254 250 261 315 179 197 183 140 158 169 173 170 163 156 151 149 152 155 158 159 158 162 161 157 159 165 172 174 170 170 171 170 172 177 187 200 211 219 221 239 257 283
233 247 245 242 237 224 208 208 203 196 176 168 162 165 165 162 156 155 154 157 160 159 160 163 164 162 162 167 173 178 172 172 174 176 180 188 199 206 213 239 245 259 280 298
256 231 235 235 228 219 213 193 182 164 153 146 145 159 165 162 160 158 158 160 160 160 161 165 167 166 166 168 169 174 173 175 180 185 191 201 208 215 228 235 265 279 294 311
237 239 243 248 223 226 210 192 180 170 163 157 152 150 158 162 161 159 159 159 160 161 162 164 166 167 168 170 171 175 178 179 182 191 201 208 215 219 233 236 236 220 243 235
Height
1513 1509 1507 1506 1504 1503 1505 1508 1511 1512 1515 1517 1518 1521 1525 1529 1531 1532 1535 1537 1540 1542 1544 1545 1546 1548 1549 1550 1551 1552 1553 1554 1554 1555 1555 1556 1556 1556 1556 1555 1554 1553 1552 1552
1510 1507 1506 1507 1508 1508 1507 1509 1511 1514 1516 1517 1518 1520 1521 1525 1528 1530 1532 1535 1537 1540 1543 1544 1545 1546 1547 1548 1549 1551 1552 1553 1553 1553 1554 1554 1554 1554 1554 1554 1553 1552 1551 1550
1505 1506 1508 1509 1509 1509 1508 1508 1509 1512 1515 1516 1518 1520 1519 1521 1525 1528 1530 1532 1535 1538 1540 1542 1544 1545 1546 1547 1548 1549 1550 1551 1551 1552 1552 1552 1552 1552 1553 1552 1551 1550 1549 1549
1504 1506 1508 1508 1507 1507 1508 1505 1508 1511 1514 1512 1516 1519 1511 1513 1520 1524 1527 1529 1532 1535 1537 1540 1542 1543 1544 1545 1547 1548 1548 1549 1549 1550 1551 1551 1551 1552 1551 1550 1550 1549 1548 1547
1505 1505 1506 1507 1505 1506 1505 1507 1507 1509 1510 1512 1513 1516 1506 1510 1515 1517 1522 1525 1529 1532 1535 1537 1539 1541 1542 1544 1545 1546 1547 1548 1548 1549 1549 1550 1550 1550 1550 1549 1548 1547 1547 1545
1503 1505 1504 1504 1505 1506 1507 1509 1509 1508 1507 1517 1508 1514 1508 1505 1509 1512 1517 1522 1525 1529 1532 1535 1537 1539 1540 1542 1543 1544 1545 1546 1546 1547 1548 1548 1548 1548 1548 1547 1547 1547 1546 1544
1504 1502 1504 1505 1505 1507 1506 1509 1515 1516 1514 1509 1503 1510 1507 1504 1508 1511 1515 1519 1522 1526 1529 1532 1534 1536 1538 1540 1542 1543 1544 1544 1545 1545 1546 1546 1546 1547 1547 1546 1546 1545 1544 1543
1505 1505 1501 1502 1502 1502 1503 1504 1514 1521 1515 1504 1505 1507 1503 1506 1511 1513 1515 1518 1521 1524 1527 1530 1532 1535 1537 1538 1540 1541 1542 1543 1543 1543 1544 1544 1544 1545 1545 1545 1544 1544 1543 1542
1503 1504 1500 1501 1501 1500 1500 1499 1496 1504 1504 1508 1501 1500 1503 1507 1510 1513 1516 1518 1521 1524 1526 1529 1531 1533 1535 1537 1538 1539 1541 1541 1542 1542 1542 1543 1543 1543 1543 1543 1543 1543 1541 1540
1499 1506 1498 1499 1500 1501 1498 1495 1501 1504 1514 1515 1504 1501 1499 1503 1508 1512 1515 1518 1520 1523 1526 1528 1530 1532 1534 1536 1537 1538 1539 1540 1541 1541 1541 1542 1542 1541 1541 1542 1541 1540 1539 1538
1499 1505 1501 1498 1499 1497 1500 1501 1500 1498 1500 1511 1512 1505 1497 1501 1505 1510 1513 1517 1520 1523 1525 1527 1529 1532 1533 1535 1536 1537 1538 1539 1539 1540 1540 1540 1540 1540 1540 1540 1541 1539 1538 1537
1501 1501 1502 1497 1495 1497 1496 1496 1498 1507 1505 1501 1504 1506 1501 1503 1506 1510 1513 1517 1520 1523 1525 1527 1529 1531 1532 1534 1535 1536 1537 1538 1538 1539 1538 1538 1538 1539 1539 1539 1539 1538 1537 1537
1503 1505 1509 1503 1501 1499 1497 1496 1496 1496 1498 1500 1503 1505 1503 1504 1507 1511 1514 1517 1520 1522 1524 1527 1528 1530 1532 1533 1534 1535 1536 1537 1537 1537 1538 1538 1538 1538 1538 1538 1538 1538 1537 1536
1504 1502 1505 1507 1500 1494 1497 1496 1495 1496 1497 1497 1496 1497 1499 1502 1506 1510 1514 1517 1519 1522 1524 1526 1528 1529 1531 1532 1534 1535 1536 1536 1537 1537 1538 1537 1537 1537 1538 1538 1538 1537 1537 1536
1503 1501 1498 1496 1494 1494 1495 1494 1494 1495 1494 1496 1494 1494 1495 1499 1504 1509 1512 1516 1518 1521 1523 1525 1527 1528 1530 1532 1533 1534 1535 1536 1536 1537 1537 1537 1537 1537 1537 1537 1537 1537 1536 1536
1503 1502 1499 1498 1494 1494 1495 1493 1492 1492 1492 1492 1493 1495 1496 1501 1505 1508 1511 1514 1517 1519 1521 1524 1526 1528 1529 1531 1533 1534 1535 1535 1536 1536 1537 1537 1537 1537 1537 1537 1537 1536 1536 1535
1500 1502 1501 1498 1492 1493 1496 1490 1490 1490 1489 1490 1491 1492 1496 1501 1504 1507 1510 1513 1515 1517 1520 1522 1524 1526 1528 1530 1532 1533 1534 1535 1536 1536 1537 1537 1537 1537 1537 1537 1537 1536 1536 1535
1500 1500 1497 1495 1497 1505 1492 1486 1487 1488 1488 1488 1490 1492 1496 1500 1504 1507 1509 1511 1513 1516 1519 1521 1523 1526 1528 1530 1531 1533 1534 1535 1535 1536 1537 1537 1537 1537 1537 1537 1537 1536 1535 1535
1497 1497 1495 1494 1495 1492 1488 1486 1486 1488 1488 1488 1489 1493 1497 1500 1503 1506 1508 1510 1513 1515 1518 1520 1522 1525 1527 1529 1530 1532 1533 1534 1535 1536 1536 1537 1537 1537 1537 1537 1537 1536 1535 1534
1493 1494 1493 1492 1496 1498 1488 1483 1486 1488 1489 1488 1490 1493 1496 1499 1497 1501 1507 1509 1512 1515 1517 1519 1521 1524 1526 1528 1530 1531 1532 1534 1534 1535 1536 1536 1537 1537 1537 1537 1536 1536 1535 1534
1490 1491 1491 1490 1490 1485 1482 1484 1487 1491 1489 1488 1490 1493 1495 1496 1497 1502 1505 1508 1511 1514 1516 1518 1521 1523 1525 1527 1529 1530 1531 1533 1534 1534 1535 1536 1536 1536 1536 1536 1536 1535 1535 1534
1482 1483 1485 1485 1488 1488 1482 1484 1485 1487 1488 1489 1490 1493 1495 1497 1500 1502 1504 1507 1510 1513 1515 1517 1520 1522 1524 1526 1528 1529 1531 1532 1533 1534 1534 1535 1535 1536 1536 1536 1535 1535 1535 1534
1478 1478 1476 1479 1482 1482 1483 1485 1487 1488 1488 1490 1491 1493 1495 1497 1500 1502 1505 1507 1510 1512 1515 1517 1519 1521 1523 1525 1527 1529 1530 1531 1532 1533 1534 1534 1535 1535 1535 1535 1535 1535 1535 1534
1478 1480 1478 1478 1478 1481 1483 1485 1486 1488 1489 1490 1492 1493 1495 1497 1499 1502 1504 1507 1509 1512 1514 1516 1519 1521 1523 1525 1526 1528 1530 1531 1532 1533 1533 1534 1534 1535 1535 1535 1535 1535 1535 1534
1478 1479 1476 1477 1478 1481 1482 1484 1485 1487 1488 1490 1491 1493 1495 1497 1499 1501 1504 1506 1509 1511 1513 1516 1518 1520 1522 1524 1526 1528 1529 1530 1531 1532 1533 1533 1534 1534 1534 1534 1534 1534 1533 1533
1477 1476 1475 1472 1475 1477 1479 1482 1485 1486 1487 1489 1491 1493 1495 1496 1498 1500 1503 1505 1508 1510 1513 1515 1517 1519 1522 1523 1525 1527 1528 1529 1530 1531 1532 1533 1533 1533 1533 1533 1533 1532 1531 1530